This demonstration page uses our WeatherBlox Daily Observations layout. Learn more.

Left ArrowRight Arrow

40.92501, -98.34201

Hourly Observations for July 10, 2021

Temp ( °F °C ) Dew Point ( °F °C ) Humidity (%) Winds ( mph kmh ) Pressure ( in mb ) Visibility ( mi km ) Precip ( " mm )
12:05 am 00:05 Mostly Cloudy 65 18.3 61 16.1 87 87 NE 25 41 29.72 1007 10 16 0.00 0.00
12:23 am 00:23 Clear 65 18.3 61 16.1 87 87 NNW 26 43 29.81 1010 10 16 0.00 0.00
12:30 am 00:30 Clear 65 18.3 61 16.1 87 87 N 16 26 29.81 1010 10 16 0.00 0.00
12:53 am 00:53 Clear 67 19.4 64 17.8 91 91 ENE 14 22 29.84 1010 10 16 0.00 0.00
1:53 am 01:53 Clear 67 19.4 64 17.8 91 91 Calm 29.85 1011 10 16 0.00 0.00
2:53 am 02:53 Mostly Clear 67 19.4 65 18.3 93 93 NNW 21 33 29.95 1014 10 16 0.00 0.00
3:26 am 03:26 Cloudy with Nearby Thunderstorms 67 19.4 63 17.2 87 87 WNW 12 19 30.00 1016 10 16 0.00 0.00
3:42 am 03:42 Cloudy with Strong Thunderstorms 68 20 64 17.8 87 87 W 21 33 30.01 1016 3 4 0.00 0.00
3:49 am 03:49 Cloudy with Strong Thunderstorms 70 21 64 18 83 83 WSW 15 24 29.99 1016 1 2 0.17 4.32
3:53 am 03:53 Mostly Cloudy with Thunderstorms 69 20.6 65 18.3 87 87 WSW 17 28 30.02 1017 2 3 0.26 6.60
3:58 am 03:58 Mostly Cloudy with Thunderstorms 69 20.6 65 18.3 87 87 WNW 25 41 30.00 1016 3 4 0.02 0.51
4:06 am 04:06 Windy with Storms Likely 68 20 64 17.8 87 87 WNW 23 37 29.99 1016 4 6 0.07 1.78
4:14 am 04:14 Cloudy with Thunderstorms 68 20 64 17.8 87 87 WNW 20 31 29.97 1015 4 6 0.09 2.29
4:27 am 04:27 Cloudy with Nearby Thunderstorms 68 20 64 17.8 87 87 NW 12 19 29.95 1014 7 11 0.10 2.54
4:45 am 04:45 Cloudy with Light Rain 68 20 64 17.8 87 87 SW 12 19 29.93 1014 4 6 0.13 3.30
4:53 am 04:53 Cloudy with Light Rain 68 20 64 17.8 87 87 WSW 10 17 29.94 1014 4 6 0.15 3.81
5:43 am 05:43 Mostly Cloudy with Light Rain 68 20 60 15.6 76 76 S 15 24 29.74 1007 10 16 0.05 1.27
5:53 am 05:53 Mostly Clear 68 20 60 15.6 76 76 SSW 5 7 29.79 1009 10 16 0.06 1.52
6:53 am 06:53 Sunny 67 19.4 61 16.1 81 81 NW 6 9 29.89 1012 10 16 0.00 0.00
7:53 am 07:53 Sunny 69 20.6 63 17.2 81 81 NNW 12 19 29.93 1014 10 16 0.00 0.00
8:53 am 08:53 Sunny 71 21.7 65 18.3 81 81 NNW 15 24 29.93 1014 8 13 0.00 0.00
9:53 am 09:53 Sunny 76 24.4 65 18.3 69 69 NW 15 24 29.95 1014 9 14 0.00 0.00
10:53 am 10:53 Sunny 79 26.1 65 18.3 62 62 NW 17 28 29.95 1014 10 16 0.00 0.00
11:53 am 11:53 Mostly Cloudy 79 26.1 65 18.3 62 62 NW 18 30 29.95 1014 10 16 0.00 0.00
12:53 pm 12:53 Partly Cloudy 82 27.8 63 17.2 53 53 NNW 20 31 29.94 1014 10 16 0.00 0.00
1:20 pm 13:20 Mostly Cloudy 82 27.8 65 18.3 56 56 NNW 26 43 29.87 1012 10 16 0.00 0.00
1:43 pm 13:43 Partly Cloudy with Nearby Thunderstorms 80 26.7 66 18.9 62 62 NW 16 26 29.87 1011 10 16 0.00 0.00
1:53 pm 13:53 Partly Cloudy with Nearby Thunderstorms 81 27.2 66 18.9 61 61 N 25 41 29.94 1014 10 16 0.00 0.00
2:11 pm 14:11 Partly Cloudy with Nearby Thunderstorms 79 26.1 63 17.2 58 58 NNW 21 33 29.89 1012 10 16 0.00 0.00
2:16 pm 14:16 Partly Cloudy with Nearby Thunderstorms 80 26.7 65 18.3 60 60 NNW 25 41 29.90 1012 10 16 0.00 0.00
2:17 pm 14:17 Partly Cloudy with Nearby Thunderstorms 80 26.7 65 18.3 60 60 NNW 28 44 29.91 1013 10 16 0.00 0.00
2:20 pm 14:20 Partly Cloudy with Nearby Thunderstorms 76 24.4 61 16.1 60 60 NNW 31 50 29.92 1013 10 16 0.00 0.00
2:27 pm 14:27 Mostly Cloudy with Strong Thunderstorms 66 18.9 60 15.6 81 81 NNW 43 69 29.94 1014 1 1 0.00 0.00
2:35 pm 14:35 Mostly Cloudy with Strong Thunderstorms 63 17.2 58 14.4 84 84 NNW 13 20 29.94 1014 0 0 0.17 4.32
2:37 pm 14:37 Mostly Cloudy with Thunderstorms 64 17.8 58 14.4 81 81 NNW 12 19 29.94 1014 1 1 0.22 5.59
2:41 pm 14:41 Cloudy with Thunderstorms 65 18.3 59 15 81 81 N 6 9 29.93 1014 5 8 0.23 5.84
2:53 pm 14:53 Mostly Cloudy with Nearby Thunderstorms 66 18.9 60 15.6 81 81 NNW 10 17 29.98 1015 10 16 0.23 5.84
3:10 pm 15:10 Mostly Cloudy 68 20 63 17.2 84 84 NW 15 24 29.95 1014 10 16 0.00 0.00
3:53 pm 15:53 Sunny 74 23.3 65 18.3 74 74 NNW 21 33 29.97 1015 10 16 0.00 0.00
4:53 pm 16:53 Mostly Cloudy 78 25.6 65 18.3 64 64 N 17 28 29.96 1015 10 16 0.00 0.00
5:53 pm 17:53 Mostly Sunny 77 25 63 17.2 62 62 N 14 22 29.96 1015 10 16 0.00 0.00
6:53 pm 18:53 Partly Cloudy 77 25 62 16.7 60 60 N 15 24 29.97 1015 10 16 0.00 0.00
7:09 pm 19:09 Mostly Cloudy with Heavy Rain 70 21.1 63 17.2 79 79 NNW 21 33 29.94 1014 2 3 0.00 0.00
7:11 pm 19:11 Mostly Cloudy with Heavy Rain 69 20.6 63 17.2 81 81 NNW 20 31 29.95 1014 5 8 0.01 0.25
7:25 pm 19:25 Mostly Cloudy with Nearby Thunderstorms 70 21.1 63 17.2 79 79 N 13 20 29.94 1014 10 16 0.06 1.52
7:40 pm 19:40 Partly Cloudy 71 21.7 63 17.2 76 76 N 13 20 29.94 1014 10 16 0.06 1.52
7:42 pm 19:42 Partly Cloudy 71 21.7 63 17.2 76 76 N 10 17 29.94 1014 10 16 0.06 1.52
7:53 pm 19:53 Partly Cloudy 71 21.7 63 17.2 76 76 N 13 20 29.98 1015 10 16 0.06 1.52
8:53 pm 20:53 Sunny 69 20.6 62 16.7 78 78 N 10 17 29.99 1016 10 16 0.00 0.00
9:53 pm 21:53 Clear 67 19.4 61 16.1 81 81 N 13 20 30.00 1016 10 16 0.00 0.00
10:53 pm 22:53 Mostly Clear 67 19.4 61 16.1 81 81 N 13 20 30.01 1016 10 16 0.00 0.00

Powered by AerisWeather